City's sites:

title views votes rating creation
?never been here 364 12 (3.08)  2010-02-07
?pastel negro 578 14 (2.50)  2010-02-07
?dizzy 256 8 (3.38)  2010-02-07
?two pictures from my desktop 850 16 (3.69)  2010-02-09
?broken clock realizes he is the last object left in the ... 412 10 (3.20)  2010-02-09
?heroes of old 564 19 (3.74)  2010-02-09
?mr. price 414 8 (3.25)  2010-02-09
?Music I Like - Part 1 592 10 (3.60)  2010-02-10
?Music I Like - Part 2 367 13 (3.54)  2010-02-10
?Music I Like - Part 3 522 13 (3.69)  2010-02-10
?Music I Like - Part 4 403 5 (3.20)  2010-02-10
?intense 511 9 (3.78)  2010-02-10
?oh SNAP 748 9 (3.22)  2010-02-10
?Music I Like - Part 5 526 9 (3.56)  2010-02-10
?SignlanguageTMND 357 14 (3.86)  2010-02-10
?lol internet (refresh) 568 6 (3.17)  2010-02-12
?Dumbeldore kills snape! 3,281 67 (4.03)  2010-02-12
?prairiedogeric10 tribute site 651 23 (3.96)  2010-02-13
?Legolewdite fan club 1,268 38 (3.87)  2010-02-13
?Connery retires 383 13 (3.85)  2010-02-13
?TOURNEY4: lol internet 518 7 (2.43)  2010-02-15
?Speed Deemon 942 23 (3.74)  2010-02-23
?Tribute: ASSCOCKredux 1,588 64 (3.91)  2010-02-23
?some light jazz with Robert De Niro 817 12 (3.50)  2010-02-23
?In What Language 1,428 34 (3.74)  2010-02-24
?go go go go go go go go go go go go go go go go ... 2,038 23 (3.74)  2010-02-24
?FEARCONDOM'S FAMILY Q U I L T 589 11 (3.55)  2010-02-24
?TEST 728 19 (3.84)  2010-02-26
?....someday, oh dream maker DUNANANANAN... 5,060 148 (3.96)  2010-02-28
?DOUGH FUNNIE HOMO DICKS 599 12 (3.58)  2010-03-01
?Using a concrete bricK 565 17 (3.82)  2010-03-01
?I had sex with a Kayan Tribe woman, little help plea... 902 11 (3.36)  2010-03-03
?Adventure 4 1,035 18 (3.61)  2010-03-03
?the standoff 439 9 (3.67)  2010-03-03
?alley children 515 11 (3.91)  2010-03-05
?Steven Seagal isn't impressed 9,797 181 (4.17)  2010-03-05
?Daunting Steps 218 7 (3.00)  2010-03-05
?Cruel and Unusual 6,139 163 (4.24)  2010-03-09
?DancehallTMND 437 10 (3.80)  2010-03-12
?FUCK OUT MY FACE 487 5 (2.60)  2010-03-18
?16, no dither 760 18 (3.94)  2010-03-20
?say hi to my girlfriend 922 16 (3.81)  2010-03-21
?TT 560 16 (3.88)  2010-03-23
?jimmm thinks about his next five 655 20 (3.80)  2010-03-24
?THE TELEKINETIC MAN 276 18 (3.50)  2010-03-25
?. 119 7 (2.71)  2010-03-26
?1! 331 17 (3.35)  2010-03-26
?Fake crocodile takes it to the limit one more time 597 9 (3.67)  2010-03-27
?croctheme 396 4 (3.25)  2010-03-27
?crocodile site 392 6 (3.50)  2010-03-27
?CROC MAKES A 187 LOOK EASY 182 6 (3.33)  2010-03-27
?New Croc SIte 162 5 (3.40)  2010-03-27
?L 323 19 (3.63)  2010-03-27
?crocodile sIte 250 10 (3.50)  2010-03-30
?Pleasant® 307 8 (3.38)  2010-03-30
?A Lovely Ride 255 13 (3.85)  2010-03-30
?It's glorious today 286 14 (3.64)  2010-04-01
?Na - Zu 424 10 (3.70)  2010-04-01
?WHO'NOWOWOWOW 413 5 (2.60)  2010-04-03
?part of your world 209 5 (3.00)  2010-04-04
?fff 174 4 (3.50)  2010-04-04
?FIve-star webiste 958 16 (1.94)  2010-04-04
?Captain Haddock 1,710 28 (3.86)  2010-04-04
?, 248 9 (3.33)  2010-04-05
?indnian 398 7 (2.71)  2010-04-05
?Ricky Manning tribute sIte will be Underway soon ! 213 3 (3.67)  2010-04-06
?Epic Domain Grab 199 6 (2.17)  2010-04-06
?retirement site 162 6 (2.83)  2010-04-06
?Paul newman doesn't drive a VAN 190 4 (3.00)  2010-04-06
?Vince McMan 335 7 (2.86)  2010-04-06
?LOL 300 5 (3.00)  2010-04-06
?wut 291 4 (2.75)  2010-04-06
?www.coachcarter.ytmnd.com 317 8 (1.88)  2010-04-06
?untitled 294 7 (2.14)  2010-04-09
?ExpirimennalTYTMND 367 8 (3.38)  2010-04-09
?jioejejejoijiojiojioejiejoijeoj 403 14 (3.79)  2010-04-09
?Jake Steele catches a fly ball 351 4 (3.50)  2010-04-10
?Jake Steele forgets the milk 333 3 (3.00)  2010-04-10
?Jake Steele just found his watch 315 4 (3.25)  2010-04-10
?Jake Steele grows up a bit 432 7 (2.86)  2010-04-10
?KRA2008 364 5 (2.60)  2010-04-10
?Fuck the world 766 26 (3.88)  2010-04-16
?a sexual guy 497 10 (2.30)  2010-05-12
?well 312 4 (4.25)  2010-09-03
?gay site you can watch while thinking about stuff 1,549 15 (4.07)  2010-09-13
?site dedicated to great warchief 1,273 12 (3.58)  2010-09-16
?38388 847 8 (3.88)  2010-09-16
?watching the world buzz by 501 4 (3.50)  2010-09-16
?what now 1,434 17 (3.94)  2010-09-16